User: anonymous   Login
Location: Unspecified
(0.0000°N, 0.0000°E)
Time: 09:16:38
(UTC+02:00)
Language:

ATLAS V CENTAUR R/B - Orbit

View from above orbital plane
View from above orbital plane
View from above satellite
View from above satellite

Ground track
Ground track

The orbit data is extracted from the following two-line orbital elements,

1 27500U 02038B   17291.58599795 +.00005192 +00000-0 +84143-3 0  9994
2 27500 018.1624 350.8568 6758524 079.4040 344.7009 02.97505029129631
Epoch (UTC): 18 October 2017 14:03:50
Eccentricity: 0.6758524
inclination: 18.1624°
perigee height: 241 km
apogee height: 27844 km
right ascension of ascending node: 350.8568°
argument of perigee: 79.4040°
revolutions per day: 2.97505029
mean anomaly at epoch: 344.7009°
orbit number at epoch: 12963

The dashed part of the orbit path shows where the satellite is in the earth's shadow,  

DLR